Weather observations for the past three days for
Laramie Regional Airport
Imperial (Metric)
Date Time (mdt) Wind (mph) Vis. (mi.) Weather Sky Cond. Temperature (ºF) Relative Humidity Wind Chill (°F) Heat Index (°F) Pressure Precipitation (in)
Air Dwpt 6 hour altimeter (in) sea level (mb) 1 hr 3 hr 6 hr
Max. Min.
19 10:53 SE 40 G 55 10.00 Fair and Windy CLR 57 42.1 58% 30.21 1015.2
19 09:53 SE 37 G 51 10.00 A Few Clouds and Windy FEW021 57 41 55% 30.21 1014.3
19 08:53 S 35 G 49 10.00 Fair and Windy CLR 55 37.9 53% 30.22 1014.7
19 07:53 SE 30 G 43 10.00 A Few Clouds and Windy FEW110 51.1 35.1 54% 30.23 1015.4
19 06:53 SE 20 G 29 10.00 A Few Clouds FEW110 48 32 54% 42 30.25 1015.9
19 05:53 SE 15 G 21 10.00 A Few Clouds FEW110 46.9 32 50 39 56% 41 30.23 1015.1
19 04:53 SE 8 10.00 Fair CLR 42.1 28 58% 38 30.21 1014.8
19 03:53 SE 3 10.00 Fair CLR 42.1 28 58% 30.21 1015.0
19 02:53 E 16 G 26 10.00 Fair CLR 43 28 56% 36 30.21 1014.7
19 01:53 E 21 G 28 10.00 Fair and Breezy CLR 45 28.9 54% 37 30.22 1015.4
19 00:53 E 18 G 29 10.00 Fair CLR 46.9 27 46% 40 30.23 1015.8
18 23:53 E 16 G 24 10.00 Mostly Cloudy BKN085 BKN110 50 24.1 64 48.9 36% 45 30.23 1015.5
18 22:53 E 6 10.00 A Few Clouds FEW080 48.9 10.9 21% 47 30.2 1015.8
18 21:53 NE 10 10.00 Partly Cloudy SCT080 54 9 16% 30.18 1013.7
18 20:53 N 8 10.00 Mostly Cloudy BKN100 55.9 10.9 17% 30.14 1013.0
18 19:53 N 10 G 18 10.00 Overcast OVC100 59 12.9 16% 30.1 1011.8
18 18:53 E 8 10.00 Overcast OVC100 61 15.1 17% 30.07 1010.2
18 17:53 W 26 G 38 10.00 Overcast and Windy OVC095 64 18 69.1 59 17% 30.02 1008.0
18 16:53 W 20 G 31 10.00 Partly Cloudy SCT100 SCT110 68 23 18% 30.02 1007.1
18 15:53 W 17 G 36 10.00 Overcast OVC100 66 25 21% 30.03 1007.9
18 14:53 NW 20 G 36 10.00 Fair CLR 64 26.1 24% 30.02 1008.2
18 13:53 W 20 G 35 10.00 Mostly Cloudy FEW070 BKN100 60.1 26.1 27% 30.02 1008.1
18 12:53 W 25 G 35 10.00 A Few Clouds and Breezy FEW080 60.1 24.1 25% 30.01 1007.7
18 11:53 W 22 G 37 10.00 Partly Cloudy and Breezy SCT110 59 21.9 59 45 24% 30.01 1006.9
18 10:53 W 20 G 30 10.00 Overcast OVC095 51.1 25 36% 30.01 1006.6
18 09:53 W 24 G 30 10.00 Fair and Breezy CLR 53.1 8.1 16% 29.97 1005.1
18 08:53 W 14 10.00 A Few Clouds FEW120 48 9 20% 43 29.98 1005.0
18 07:53 W 20 G 26 10.00 Overcast OVC120 45 9 23% 38 29.97 1004.1
18 06:53 W 22 G 33 10.00 Overcast and Breezy OVC110 45 9 23% 37 29.95 1003.2
18 05:53 W 22 G 32 10.00 A Few Clouds and Breezy FEW120 45 8.1 54 41 22% 37 29.95 1003.3
18 04:53 W 21 G 30 10.00 Mostly Cloudy and Breezy BKN120 48 16 28% 41 29.91 1001.3
18 03:53 SW 15 G 25 10.00 Fair CLR 46 23 40% 40 29.89 1000.4
18 02:53 W 7 10.00 Fair CLR 44.1 21.9 41% 41 29.87 999.8
18 01:53 NW 23 G 32 10.00 Fair and Breezy CLR 48 24.1 39% 41 29.85 998.4
18 00:53 NW 29 G 40 10.00 Fair and Windy CLR 50 28 43% 43 29.81 997.0
17 23:53 NW 23 G 35 10.00 Fair and Breezy CLR 54 30.9 84.9 54 42% 29.75 994.8
17 22:53 NW 21 G 29 10.00 A Few Clouds and Breezy FEW120 66 32 28% 29.71 992.2
17 21:53 S 12 10.00 Fair CLR 64 28.9 27% 29.68 992.0
17 20:53 SW 13 10.00 Fair CLR 71.1 27 19% 29.66 991.3
17 19:53 SW 17 G 26 10.00 Fair CLR 78.1 26.1 15% 77 29.65 991.1
17 18:53 SW 24 G 45 10.00 Fair and Breezy CLR 81 25 13% 79 29.64 991.4
17 17:53 SW 26 G 33 10.00 Fair and Windy CLR 81 27 88 81 14% 79 29.62 991.7
17 16:53 SW 26 G 39 10.00 Fair and Windy CLR 82 25 12% 80 29.64 991.7
17 15:53 SW 26 G 43 10.00 Fair and Windy CLR 86 30 13% 83 29.65 990.9
17 14:53 SW 31 G 45 10.00 Fair and Windy CLR 87.1 28.9 12% 83 29.66 991.2
17 13:53 SW 29 G 41 10.00 Fair and Windy CLR 87.1 30.9 13% 83 29.7 992.0
17 12:53 S 24 G 35 10.00 Fair and Breezy CLR 86 30 13% 83 29.71 992.2
17 11:53 SW 18 G 35 10.00 Fair CLR 82.9 27 84 45 13% 80 29.73 993.4
17 10:53 SW 25 G 39 10.00 Fair and Breezy CLR 82 28 14% 80 29.76 994.1
17 09:53 S 14 G 22 10.00 Fair CLR 75.9 34 22% 77 29.78 995.3
17 08:53 S 12 10.00 Fair CLR 66.9 45 45% 29.81 996.9
17 07:53 S 14 10.00 Fair CLR 60.1 48.9 67% 29.82 997.9
17 06:53 SW 8 10.00 Fair CLR 50 43 77% 47 29.84 999.5
17 05:53 Vrbl 6 10.00 Fair CLR 45 41 61 44.1 86% 42 29.84 1000.0
17 04:53 Calm 10.00 Fair CLR 46.9 43 86% 29.83 999.4
17 03:53 Calm 10.00 Fair CLR 53.1 46 77% 29.83 997.3
17 02:53 S 6 10.00 Fair CLR 52 46.9 83% 29.83 997.4
17 01:53 S 14 10.00 Fair CLR 55.9 48.9 77% 29.82 996.2
17 00:53 SE 17 G 26 10.00 Fair CLR 59 52 78% 29.82 996.5
16 23:53 SE 22 10.00 Fair and Breezy CLR 61 48.9 73.9 61 65% 29.84 997.2
16 22:53 SE 18 G 28 10.00 Fair CLR 63 48 58% 29.86 998.2
16 21:53 SE 20 10.00 Fair CLR 66 46 49% 29.87 998.9
16 20:53 SE 15 10.00 Fair CLR 68 45 44% 29.87 999.3
16 19:53 SE 16 G 29 10.00 Fair CLR 71.1 44.1 38% 29.86 999.4
16 18:53 SE 17 G 32 10.00 Fair CLR 73 43 34% 29.88 1000.3
16 17:53 SE 24 G 33 10.00 Fair and Breezy CLR 73.9 42.1 89.1 73.9 32% 29.9 1001.8
16 16:53 SE 23 G 33 10.00 Fair and Breezy CLR 77 39.9 26% 77 29.89 1001.0
16 15:53 W 24 G 41 10.00 Fair and Breezy CLR 86 27 12% 83 29.89 999.7
16 14:53 W 24 G 44 10.00 Fair and Breezy CLR 84.9 26.1 12% 82 29.9 1000.0
16 13:53 SW 35 G 51 10.00 A Few Clouds and Windy FEW120 88 27 11% 84 29.9 999.8
16 12:53 SW 15 G 26 10.00 Fair CLR 84 28.9 13% 81 29.93 1000.4
16 11:53 SW 13 G 28 10.00 Fair CLR 80.1 30 81 48 16% 78 29.95 1001.2
Date Time (mdt) Wind (mph) Vis. (mi.) Weather Sky Cond. Air Dwpt Max. Min. Relative Humidity Wind Chill (°F) Heat Index (°F) altimeter (in) sea level (mb) 1 hr 3 hr 6 hr
6 hour
Temperature (ºF) Pressure Precipitation (in)